GOES 8 [-]

Last updated on Oct. 24, 2020, 5:54 a.m. UTC

1 23051U 94022A   20297.77571422 -.00000010  00000-0  00000-0 0  9995
2 23051  12.6557  28.5741 0004520 328.0974  39.3092  0.98902585103736
UTC
Height (km)
Latitude
Longitude
Inclination
Orbital Period
UTC large
Height (km)
Speed (km/s)
/
Latitude / Longitude
Inclination (degrees)
Orbital Period (minutes)
Azimuth
Elevation
Range (km)
Doppler Factor
iOS Compass Heading
iOS Angle

Next 30 passes for location: Hong Kong

Rise time Rise Azimuth (degrees) Set time Set Azimuth (degrees) Duration Max altitude (degrees)

No matching passes for this satellites